TimeEDT,TemperatureF,Dew PointF,Humidity,Sea Level PressureIn,VisibilityMPH,Wind Direction,Wind SpeedMPH,Gust SpeedMPH,PrecipitationIn,Events,Conditions,WindDirDegrees,DateUTC
12:52 AM,39.2,39.2,100,30.15,2.5,WNW,4.6,-,N/A,,Clear,300,2013-05-07 04:52:00
12:54 AM,39.9,39.0,97,30.16,3.0,WNW,3.5,-,N/A,,Clear,300,2013-05-07 04:54:00
1:36 AM,39.2,39.2,100,30.15,1.8,Calm,Calm,-,N/A,,Clear,0,2013-05-07 05:36:00
1:43 AM,39.2,39.2,100,30.15,3.0,Calm,Calm,-,N/A,,Clear,0,2013-05-07 05:43:00
1:54 AM,39.9,37.9,93,30.15,1.2,Calm,Calm,-,N/A,,Partly Cloudy,0,2013-05-07 05:54:00
2:01 AM,39.2,37.4,93,30.15,0.5,Calm,Calm,-,N/A,Fog,Fog,0,2013-05-07 06:01:00
2:06 AM,39.2,37.4,93,30.14,1.2,Calm,Calm,-,N/A,,Partly Cloudy,0,2013-05-07 06:06:00
2:09 AM,37.4,37.4,100,30.14,0.8,Calm,Calm,-,N/A,,Mist,0,2013-05-07 06:09:00
2:21 AM,39.2,37.4,93,30.14,2.5,Calm,Calm,-,N/A,,Partly Cloudy,0,2013-05-07 06:21:00
2:29 AM,37.4,37.4,100,30.14,0.8,Calm,Calm,-,N/A,,Clear,0,2013-05-07 06:29:00
2:46 AM,35.6,35.6,100,30.14,0.8,Calm,Calm,-,N/A,,Mist,0,2013-05-07 06:46:00
2:54 AM,36.0,36.0,100,30.15,0.2,Calm,Calm,-,N/A,Fog,Fog,0,2013-05-07 06:54:00
3:12 AM,37.4,37.4,100,30.14,1.0,WNW,4.6,-,N/A,,Mist,300,2013-05-07 07:12:00
3:15 AM,39.2,37.4,93,30.14,1.5,WNW,4.6,-,N/A,,Partly Cloudy,300,2013-05-07 07:15:00
3:21 AM,37.4,37.4,100,30.14,3.0,Calm,Calm,-,N/A,,Scattered Clouds,0,2013-05-07 07:21:00
3:30 AM,37.4,37.4,100,30.14,4.0,Calm,Calm,-,N/A,,Mostly Cloudy,0,2013-05-07 07:30:00
3:33 AM,37.4,37.4,100,30.14,1.5,Calm,Calm,-,N/A,,Mostly Cloudy,0,2013-05-07 07:33:00
3:35 AM,37.4,37.4,100,30.14,0.8,Calm,Calm,-,N/A,,Mostly Cloudy,0,2013-05-07 07:35:00
3:44 AM,35.6,35.6,100,30.14,0.2,Calm,Calm,-,N/A,Fog,Fog,0,2013-05-07 07:44:00
3:54 AM,37.9,37.0,97,30.15,0.2,Calm,Calm,-,N/A,Fog,Fog,0,2013-05-07 07:54:00
4:54 AM,39.9,39.0,97,30.15,0.2,Calm,Calm,-,N/A,Fog,Fog,0,2013-05-07 08:54:00
5:54 AM,41.0,39.9,96,30.16,0.2,Calm,Calm,-,N/A,Fog,Fog,0,2013-05-07 09:54:00
6:54 AM,42.1,42.1,100,30.17,0.2,Calm,Calm,-,N/A,Fog,Fog,0,2013-05-07 10:54:00
7:54 AM,43.0,43.0,100,30.18,0.2,Calm,Calm,-,N/A,Fog,Fog,0,2013-05-07 11:54:00
8:35 AM,44.6,44.6,100,30.18,1.0,Calm,Calm,-,N/A,,Mist,0,2013-05-07 12:35:00
8:39 AM,44.6,44.6,100,30.18,2.5,Calm,Calm,-,N/A,,Overcast,0,2013-05-07 12:39:00
8:46 AM,46.4,44.6,93,30.17,7.0,Calm,Calm,-,N/A,,Overcast,0,2013-05-07 12:46:00
8:54 AM,46.0,45.0,96,30.19,10.0,Calm,Calm,-,N/A,,Overcast,0,2013-05-07 12:54:00
9:04 AM,48.2,44.6,87,30.17,10.0,Variable,3.5,-,N/A,,Mostly Cloudy,0,2013-05-07 13:04:00
9:15 AM,48.2,44.6,87,30.17,10.0,Variable,3.5,-,N/A,,Scattered Clouds,0,2013-05-07 13:15:00
9:54 AM,57.0,45.0,64,30.17,10.0,Calm,Calm,-,N/A,,Clear,0,2013-05-07 13:54:00
10:54 AM,64.9,46.0,50,30.16,10.0,Variable,3.5,-,N/A,,Clear,0,2013-05-07 14:54:00
11:54 AM,75.0,46.9,37,30.13,10.0,Calm,Calm,-,N/A,,Clear,0,2013-05-07 15:54:00
12:54 PM,79.0,39.9,25,30.11,10.0,Variable,4.6,-,N/A,,Clear,0,2013-05-07 16:54:00
1:54 PM,81.0,36.0,20,30.09,10.0,Variable,6.9,-,N/A,,Clear,0,2013-05-07 17:54:00
2:54 PM,81.0,35.1,19,30.07,10.0,Variable,3.5,-,N/A,,Clear,0,2013-05-07 18:54:00
3:54 PM,81.0,30.9,16,30.05,10.0,SSE,5.8,20.7,N/A,,Clear,160,2013-05-07 19:54:00
4:54 PM,80.1,42.1,26,30.04,10.0,SSE,10.4,18.4,N/A,,Clear,150,2013-05-07 20:54:00
5:54 PM,78.1,42.1,28,30.05,10.0,South,10.4,20.7,N/A,,Clear,170,2013-05-07 21:54:00
6:54 PM,75.9,43.0,31,30.07,10.0,South,8.1,-,N/A,,Clear,180,2013-05-07 22:54:00
7:54 PM,71.1,46.0,41,30.09,10.0,South,6.9,-,N/A,,Clear,170,2013-05-07 23:54:00
8:54 PM,66.9,50.0,54,30.12,10.0,Calm,Calm,-,N/A,,Clear,0,2013-05-08 00:54:00
9:54 PM,55.9,51.1,84,30.14,10.0,Calm,Calm,-,N/A,,Clear,0,2013-05-08 01:54:00
10:54 PM,57.0,50.0,77,30.14,10.0,Calm,Calm,-,N/A,,Clear,0,2013-05-08 02:54:00
11:54 PM,54.0,52.0,93,30.15,10.0,Calm,Calm,-,N/A,,Clear,0,2013-05-08 03:54:00